Regional Weather Roundup
Issued by NWS

Home | Current Version | Previous Version | Graphics & Text | Print | Product List | Glossary On
Versions: 1 2 3 4 5 6 7 8 9 10 11 12 13 14 15 16 17 18 19 20 21 22 23 24 25 26 27 28 29 30 31 32 33 34 35 36 37 38 39 40 41 42 43 44 45 46 47 48 49 50
000
ASUS45 KTFX 281910
RWRMT
MONTANA REGIONAL WEATHER ROUNDUP
NATIONAL WEATHER SERVICE GREAT FALLS MT
100 PM MDT TUE MAR 28 2017

NOTE: "FAIR" INDICATES FEW OR NO CLOUDS BELOW 12000 FEET WITH NO
SIGNIFICANT WEATHER AND/OR OBSTRUCTIONS TO VISIBILITY.

MTZ001>007-043-282000-
WEST OF THE DIVIDE

CITY           SKY/WX    TMP DP  RH WIND       PRES   REMARKS
KALISPELL      CLOUDY    45  31  58 SW12      30.19S
MISSOULA       PTSUNNY   46  28  49 NW6       30.23F
BUTTE          CLOUDY    41  17  38 NW10      30.17F
MULLAN PASS    LGT SNOW  29  28  96 SW8       30.16S FOG     WCI  21
ANACONDA         N/A     45  18  33 W16G24    30.17F
DEER LODGE       N/A     45  19  36 CALM      30.21S
EUREKA           N/A     46  28  49 SE7       30.17F
HAMILTON         N/A     45  19  36 SW5       30.23F
RONAN            N/A     46  29  52 SW5       30.23S
$$

MTZ008-052>055-282000-
SOUTHWEST MONTANA

CITY           SKY/WX    TMP DP  RH WIND       PRES   REMARKS
BOZEMAN        CLOUDY    47  22  37 NW10      30.17F
DILLON         MOSUNNY   44  20  38 VRB3      30.16S
W YELLOWSTONE  SUNNY     36  18  48 E5        30.15S
ENNIS          SUNNY     41  19  42 CALM      30.21S
THREE FORKS      N/A     48  48 100 SW8       30.14F
$$

MTZ009-010-012-014-046-048-049-054-282000-
EAST SLOPES AND CENTRAL MONTANA

CITY           SKY/WX    TMP DP  RH WIND       PRES   REMARKS
CUT BANK       MOSUNNY   47  23  38 W30G40    30.04S
GREAT FALLS    CLOUDY    49  21  33 SW21G29   30.08F
MALMSTROM AFB  MOSUNNY   50  24  36 SW17G28   30.09F
HELENA         MOSUNNY   50  21  32 W17G24    30.15F
AUGUSTA          N/A     44  17  33 W21G29    30.08
BOWMANS CRNR     N/A     45  19  36 SW21G28   30.08F
CHOTEAU          N/A     50  18  27 W12G23    30.08S
CONRAD           N/A     52  27  38 SE2       30.07S
FAIRFIELD        N/A     49  17  27 SW21G31   30.07
POWER            N/A     50  19  29 SW20      30.06F
RAYNESFORD     PTSUNNY   45  21  39 SW16      30.11S
$$

MTZ011-013-016-021-045-047-050-051-282000-
NORTH CENTRAL MONTANA

CITY           SKY/WX    TMP DP  RH WIND       PRES   REMARKS
HAVRE          SUNNY     55  25  31 SW17G24   30.05F
LEWISTOWN      CLOUDY    48  20  32 VRB7G16   30.10F
N BAR RANCH    PTSUNNY   48  21  34 NW13      30.11F
CHINOOK          N/A     55  21  26 W16G22    30.06F
DENTON           N/A     49  20  32 W24       30.06F
FORT BENTON      N/A     55  21  26 MISG      30.09F
GEYSER         PTSUNNY   46  21  37 SW13G23   30.09
GRASS RANGE      N/A     50  22  32 W10G21    30.06
JUDITH GAP       N/A     46  19  33 W5        30.10
STANFORD       PTSUNNY   46  20  35 W12       30.09
WINIFRED         N/A     50  21  31 SW10G20   30.08F
$$

MTZ017>020-022>027-061-062-282000-
NORTHEAST MONTANA

CITY           SKY/WX    TMP DP  RH WIND       PRES   REMARKS
GLASGOW        MOSUNNY   47  36  65 CALM      30.08F
JORDAN           N/A     52  29  41 NW9       30.09S
SIDNEY         MOSUNNY   46  39  76 NW8       30.09S
WOLF POINT     CLOUDY    44  37  76 VRB6      30.10F
MALTA          SUNNY     55  28  35 W12G22    30.06F
PLENTYWOOD       N/A     41  37  87 W3        30.09S
POPLAR           N/A     43  37  81 W5        30.10S
$$

MTZ028>42-056>058-282000-
SOUTHCENTRAL AND SOUTHEAST MONTANA

CITY           SKY/WX    TMP DP  RH WIND       PRES   REMARKS
BAKER          PTSUNNY   57  35  43 VRB5      30.05F
BILLINGS       CLOUDY    50  30  46 S5        30.12F
LIVINGSTON     SUNNY     48  22  35 SW14      30.13F
MILES CITY     LGT RAIN  47  39  74 NW9       30.10R
BIG TIMBER     SUNNY     48  23  37 W14G22    30.14F
FORSYTH          N/A     45  41  87 W7        30.12S
HARLOWTON        N/A     49  20  30 W23G30    30.10F
LAUREL           N/A     52  29  41 NE3       30.10F
$$

REGIONAL REPORTS...DAKOTAS

CITY           SKY/WX    TMP DP  RH WIND       PRES   REMARKS
WILLISTON      SUNNY     50  39  66 SE6       30.08F
MINOT          CLOUDY    48  40  73 E8        30.11F
DICKINSON      PTSUNNY   57  32  38 SE14      30.05S
BEACH          PTSUNNY   57  34  41 VRB6      30.08F
TIOGA            N/A     45  45 100 S10       30.10S
WATFORD CITY     N/A     55  39  54 MISG      30.06F
BISMARCK       MOSUNNY   56  39  53 E8        30.13F
GRAND FORKS    PTSUNNY   51  40  65 NE8       30.20S
FARGO          CLOUDY    54  41  61 N5        30.18S
BUFFALO SD       N/A     58  40  51 E8        29.97F
RAPID CITY     LGT RAIN  42  40  92 N5        30.04S
$$

REGIONAL REPORTS...WYOMING/IDAHO/WASHINGTON

CITY           SKY/WX    TMP DP  RH WIND       PRES   REMARKS
GILLETTE       CLOUDY    43  37  79 NW22      30.06S
SHERIDAN       LGT RAIN  42  37  82 N10       30.14S
BUFFALO WY     CLOUDY    42  34  73 N26G37    30.09F
CODY           SUNNY     44  30  57 NE12      30.13S
YELLOWSTONE LA   N/A     33  20  58 VRB3      30.13F
IDAHO FALLS    MOSUNNY   44  26  49 VRB3      30.19R
SALMON         MOSUNNY   46  23  39 N8        30.19F
BOISE          SUNNY     50  33  52 W15G22    30.29S
SPOKANE        CLOUDY    44  34  67 S16       30.22F
$$

REGIONAL REPORTS...ALBERTA

CITY           SKY/WX    TMP DP  RH WIND       PRES   REMARKS
EDMONTON       FOG       36  34  93 N5        29.88S VSB 1
CALGARY        PTSUNNY   48  16  27 W8        29.91S
LETHBRIDGE     PTSUNNY   52  23  32 W29       29.98S
MEDICINE HAT   MOSUNNY   57  23  26 SW13G20   29.96F
WATERTON GATE    N/A     43  23  45 SW18G29     N/A
CARDSTON         N/A     46  21  36 W16G23      N/A
MILK RIVER       N/A     54  21  28 W17G23      N/A
ONEFOUR          N/A     54  18  24 W13G20      N/A
$$

REGIONAL REPORTS...SASKATCHEWAN

CITY           SKY/WX    TMP DP  RH WIND       PRES   REMARKS
SWIFT CURRENT  SUNNY     54  32  43 SW12G20   29.96F
REGINA         CLOUDY    39  36  87 SE14      30.09F WCI  31
SASKATOON      CLOUDY    41  36  81 SE12      30.05F
CYPRESS HILLS    N/A     48  23  37 SW13G18     N/A
ROCKGLEN         N/A     48  37  66 SW7         N/A
$$



USA.gov is the U.S. government's official web portal to all federal, state and local government web resources and services.